N55JG KCPK-KTGI

Flight info

Callsign N55JG
Flight time 0h 40m
Altitude 5500
Route CEBEE OUTLA JAMIE
Aircraft C172/L-SDFGY/LB1

Departure

Time 2026-05-06 13:04
Airport Chesapeake Regional Airport (KCPK)

Arrival

Time 2026-05-06 13:45
Airport Tangier Island Airport (KTGI)
Time Latitude Longitude Altitude Speed Heading
2026-05-06 12:49 36.66555 -76.32383 24 ft 0 kts 313°
2026-05-06 13:00 36.66583 -76.32384 24 ft 7 kts 40°
2026-05-06 13:00 36.66610 -76.32309 24 ft 13 kts 94°
2026-05-06 13:00 36.66586 -76.32224 24 ft 11 kts 71°
2026-05-06 13:01 36.66652 -76.32153 24 ft 14 kts 38°
2026-05-06 13:01 36.66732 -76.32079 24 ft 15 kts 36°
2026-05-06 13:01 36.66815 -76.31999 25 ft 16 kts 38°
2026-05-06 13:01 36.66908 -76.31915 25 ft 17 kts 39°
2026-05-06 13:02 36.67002 -76.31828 25 ft 16 kts 36°
2026-05-06 13:02 36.67088 -76.31748 25 ft 15 kts 36°
2026-05-06 13:02 36.67167 -76.31675 25 ft 13 kts 36°
2026-05-06 13:02 36.67218 -76.31607 25 ft 9 kts 96°
2026-05-06 13:03 36.67211 -76.31585 25 ft 0 kts 127°
2026-05-06 13:03 36.67190 -76.31556 26 ft 8 kts 136°
2026-05-06 13:03 36.67133 -76.31542 26 ft 9 kts 204°
2026-05-06 13:03 36.66978 -76.31680 28 ft 51 kts 217°
2026-05-06 13:04 36.66616 -76.32018 136 ft 72 kts 215°
2026-05-06 13:04 36.66246 -76.32391 380 ft 68 kts 218°
2026-05-06 13:04 36.65889 -76.32762 610 ft 63 kts 217°
2026-05-06 13:04 36.65741 -76.33313 804 ft 75 kts 253°
2026-05-06 13:05 36.65682 -76.33834 1142 ft 58 kts 246°
2026-05-06 13:05 36.65665 -76.34328 1443 ft 53 kts 263°
2026-05-06 13:05 36.65638 -76.34732 1627 ft 46 kts 210°
2026-05-06 13:05 36.65303 -76.34410 1797 ft 90 kts 135°
2026-05-06 13:06 36.65171 -76.33561 2025 ft 104 kts 120°
2026-05-06 13:06 36.65024 -76.32705 2341 ft 95 kts 124°
2026-05-06 13:06 36.64894 -76.31850 2502 ft 101 kts 121°
2026-05-06 13:06 36.64824 -76.30999 2721 ft 100 kts 117°
2026-05-06 13:07 36.64796 -76.30132 2916 ft 108 kts 88°
2026-05-06 13:07 36.65309 -76.29392 3065 ft 115 kts 26°
2026-05-06 13:07 36.66010 -76.28904 3239 ft 114 kts 22°
2026-05-06 13:07 36.66705 -76.28413 3458 ft 116 kts 25°
2026-05-06 13:08 36.67385 -76.27902 3688 ft 112 kts 24°
2026-05-06 13:08 36.68046 -76.27393 3855 ft 110 kts 12°
2026-05-06 13:08 36.68774 -76.27212 4020 ft 106 kts 360°
2026-05-06 13:08 36.69488 -76.27116 4204 ft 100 kts 341°
2026-05-06 13:09 36.70153 -76.27266 4374 ft 99 kts 332°
2026-05-06 13:09 36.70812 -76.27529 4532 ft 95 kts 324°
2026-05-06 13:09 36.71429 -76.27853 4475 ft 98 kts 320°
2026-05-06 13:09 36.72096 -76.28123 4486 ft 97 kts 329°
2026-05-06 13:10 36.72628 -76.28410 4541 ft 79 kts 302°
2026-05-06 13:10 36.72899 -76.28959 4487 ft 77 kts 292°
2026-05-06 13:10 36.73443 -76.29277 4468 ft 106 kts 353°
2026-05-06 13:10 36.74138 -76.28855 4486 ft 114 kts 22°
2026-05-06 13:11 36.74844 -76.28414 4513 ft 112 kts 14°
2026-05-06 13:11 36.75576 -76.28017 4458 ft 123 kts 18°
2026-05-06 13:11 36.76309 -76.27468 4495 ft 123 kts 32°
2026-05-06 13:11 36.76969 -76.26779 4481 ft 125 kts 38°
2026-05-06 13:12 36.77621 -76.26052 4482 ft 126 kts 41°
2026-05-06 13:12 36.78253 -76.25234 4460 ft 135 kts 43°
2026-05-06 13:12 36.78928 -76.24392 4464 ft 138 kts 43°
2026-05-06 13:12 36.79611 -76.23543 4464 ft 138 kts 42°
2026-05-06 13:13 36.80288 -76.22709 4458 ft 138 kts 43°
2026-05-06 13:13 36.80976 -76.21868 4457 ft 138 kts 42°
2026-05-06 13:13 36.81553 -76.20901 4452 ft 139 kts 47°
2026-05-06 13:13 36.82327 -76.20226 4451 ft 135 kts 25°
2026-05-06 13:14 36.83120 -76.19618 4448 ft 132 kts 25°
2026-05-06 13:14 36.83899 -76.19030 4440 ft 131 kts 25°
2026-05-06 13:14 36.84681 -76.18437 4451 ft 132 kts 26°
2026-05-06 13:14 36.85466 -76.17839 4451 ft 132 kts 25°
2026-05-06 13:15 36.86257 -76.17240 4458 ft 134 kts 25°
2026-05-06 13:15 36.87046 -76.16641 4462 ft 134 kts 26°
2026-05-06 13:15 36.87847 -76.16031 4458 ft 135 kts 26°
2026-05-06 13:15 36.88694 -76.15613 4448 ft 128 kts
2026-05-06 13:16 36.89556 -76.15325 4454 ft 128 kts
2026-05-06 13:16 36.90418 -76.15030 4463 ft 129 kts
2026-05-06 13:16 36.91294 -76.14733 4461 ft 132 kts
2026-05-06 13:16 36.92173 -76.14430 4456 ft 131 kts
2026-05-06 13:17 36.93048 -76.14127 4447 ft 129 kts
2026-05-06 13:17 36.93910 -76.13834 4444 ft 127 kts
2026-05-06 13:17 36.94752 -76.13546 4474 ft 122 kts
2026-05-06 13:17 36.95565 -76.13270 4482 ft 120 kts
2026-05-06 13:18 36.96376 -76.12993 4488 ft 122 kts
2026-05-06 13:18 36.97189 -76.12717 4487 ft 123 kts
2026-05-06 13:18 36.98018 -76.12432 4487 ft 123 kts
2026-05-06 13:18 36.98834 -76.12152 4486 ft 123 kts
2026-05-06 13:19 36.99665 -76.11868 4491 ft 123 kts
2026-05-06 13:19 37.00496 -76.11583 4492 ft 124 kts
2026-05-06 13:19 37.01332 -76.11296 4492 ft 124 kts
2026-05-06 13:19 37.02165 -76.11009 4494 ft 124 kts
2026-05-06 13:20 37.02987 -76.10713 4492 ft 124 kts
2026-05-06 13:20 37.03825 -76.10441 4494 ft 124 kts
2026-05-06 13:20 37.04660 -76.10154 4492 ft 124 kts
2026-05-06 13:20 37.05498 -76.09865 4494 ft 125 kts
2026-05-06 13:21 37.06327 -76.09579 4497 ft 125 kts
2026-05-06 13:21 37.07167 -76.09290 4496 ft 125 kts
2026-05-06 13:21 37.08010 -76.09000 4497 ft 125 kts
2026-05-06 13:21 37.08850 -76.08713 4497 ft 125 kts
2026-05-06 13:22 37.09692 -76.08423 4490 ft 126 kts
2026-05-06 13:22 37.10536 -76.08132 4492 ft 126 kts
2026-05-06 13:22 37.11383 -76.07841 4491 ft 126 kts
2026-05-06 13:22 37.12234 -76.07548 4492 ft 127 kts
2026-05-06 13:23 37.13084 -76.07256 4494 ft 127 kts
2026-05-06 13:23 37.13929 -76.06966 4495 ft 128 kts
2026-05-06 13:23 37.14787 -76.06670 4497 ft 128 kts
2026-05-06 13:23 37.15648 -76.06373 4499 ft 128 kts
2026-05-06 13:24 37.16513 -76.06075 4500 ft 129 kts
2026-05-06 13:24 37.17366 -76.05780 4495 ft 129 kts
2026-05-06 13:24 37.18229 -76.05483 4491 ft 128 kts
2026-05-06 13:24 37.19090 -76.05187 4493 ft 128 kts
2026-05-06 13:25 37.19958 -76.04889 4496 ft 129 kts
2026-05-06 13:25 37.20825 -76.04589 4499 ft 129 kts
2026-05-06 13:25 37.21690 -76.04290 4498 ft 128 kts
2026-05-06 13:25 37.22545 -76.03995 4497 ft 129 kts
2026-05-06 13:26 37.23412 -76.03695 4497 ft 129 kts
2026-05-06 13:26 37.24284 -76.03395 4496 ft 129 kts
2026-05-06 13:26 37.25140 -76.03100 4494 ft 129 kts
2026-05-06 13:26 37.26012 -76.02799 4495 ft 129 kts
2026-05-06 13:27 37.26873 -76.02501 4500 ft 130 kts
2026-05-06 13:27 37.27745 -76.02198 4501 ft 129 kts
2026-05-06 13:27 37.28616 -76.01897 4499 ft 129 kts
2026-05-06 13:27 37.29482 -76.01599 4497 ft 129 kts
2026-05-06 13:28 37.30339 -76.01303 4492 ft 129 kts
2026-05-06 13:28 37.31205 -76.01003 4493 ft 129 kts
2026-05-06 13:28 37.32072 -76.00703 4501 ft 129 kts
2026-05-06 13:28 37.32947 -76.00402 4496 ft 130 kts
2026-05-06 13:29 37.33815 -76.00100 4499 ft 132 kts
2026-05-06 13:29 37.34701 -75.99808 4492 ft 129 kts
2026-05-06 13:29 37.35588 -75.99697 4501 ft 128 kts 356°
2026-05-06 13:29 37.36483 -75.99576 4500 ft 129 kts 356°
2026-05-06 13:30 37.37363 -75.99459 4497 ft 129 kts 355°
2026-05-06 13:30 37.38255 -75.99340 4497 ft 129 kts 355°
2026-05-06 13:30 37.39153 -75.99220 4497 ft 130 kts 356°
2026-05-06 13:30 37.40051 -75.99101 4495 ft 129 kts 356°
2026-05-06 13:31 37.40935 -75.98982 4494 ft 129 kts 356°
2026-05-06 13:31 37.41827 -75.98863 4496 ft 129 kts 356°
2026-05-06 13:31 37.42727 -75.98743 4497 ft 130 kts 356°
2026-05-06 13:31 37.43632 -75.98621 4497 ft 130 kts 356°
2026-05-06 13:32 37.44535 -75.98500 4498 ft 130 kts 356°
2026-05-06 13:32 37.45420 -75.98382 4491 ft 129 kts 355°
2026-05-06 13:32 37.46314 -75.98263 4490 ft 129 kts 355°
2026-05-06 13:32 37.47207 -75.98143 4486 ft 128 kts 355°
2026-05-06 13:33 37.48094 -75.98024 4483 ft 128 kts 355°
2026-05-06 13:33 37.48979 -75.97906 4482 ft 129 kts 356°
2026-05-06 13:33 37.49875 -75.97786 4484 ft 129 kts 356°
2026-05-06 13:33 37.50772 -75.97665 4483 ft 129 kts 356°
2026-05-06 13:34 37.51658 -75.97547 4482 ft 127 kts 355°
2026-05-06 13:34 37.52541 -75.97428 4480 ft 127 kts 355°
2026-05-06 13:34 37.53422 -75.97310 4481 ft 128 kts 355°
2026-05-06 13:34 37.54311 -75.97192 4478 ft 129 kts 356°
2026-05-06 13:35 37.55209 -75.97071 4478 ft 129 kts 356°
2026-05-06 13:35 37.56097 -75.96951 4477 ft 129 kts 355°
2026-05-06 13:35 37.56989 -75.96831 4474 ft 128 kts 356°
2026-05-06 13:35 37.57873 -75.96713 4472 ft 127 kts 356°
2026-05-06 13:36 37.58752 -75.96595 4477 ft 127 kts 355°
2026-05-06 13:36 37.59627 -75.96478 4476 ft 128 kts 355°
2026-05-06 13:36 37.60518 -75.96363 4474 ft 128 kts 353°
2026-05-06 13:36 37.61372 -75.96472 4472 ft 122 kts 341°
2026-05-06 13:37 37.62216 -75.96596 4471 ft 122 kts 341°
2026-05-06 13:37 37.63060 -75.96723 4470 ft 121 kts 340°
2026-05-06 13:37 37.63617 -75.96807 4470 ft 122 kts 341°
2026-05-06 13:37 37.64739 -75.96977 4465 ft 122 kts 340°
2026-05-06 13:38 37.65582 -75.97104 4465 ft 121 kts 340°
2026-05-06 13:38 37.66136 -75.97187 4468 ft 120 kts 341°
2026-05-06 13:38 37.67229 -75.97352 4483 ft 119 kts 341°
2026-05-06 13:38 37.67777 -75.97434 4488 ft 119 kts 341°
2026-05-06 13:39 37.68605 -75.97563 4480 ft 118 kts 341°
2026-05-06 13:39 37.69442 -75.97659 4245 ft 125 kts 344°
2026-05-06 13:39 37.70327 -75.97699 3975 ft 127 kts 346°
2026-05-06 13:39 37.71203 -75.97737 3729 ft 127 kts 343°
2026-05-06 13:40 37.72382 -75.97836 3431 ft 125 kts 341°
2026-05-06 13:40 37.72954 -75.97929 3279 ft 126 kts 338°
2026-05-06 13:40 37.73829 -75.98063 3019 ft 127 kts 339°
2026-05-06 13:40 37.74699 -75.98198 2744 ft 128 kts 338°
2026-05-06 13:41 37.75597 -75.98206 2546 ft 133 kts 352°
2026-05-06 13:41 37.76535 -75.98042 2282 ft 137 kts 354°
2026-05-06 13:41 37.77480 -75.97920 2017 ft 135 kts 349°
2026-05-06 13:41 37.78407 -75.97924 1760 ft 131 kts 338°
2026-05-06 13:42 37.79321 -75.97978 1525 ft 133 kts 345°
2026-05-06 13:42 37.80242 -75.97970 1340 ft 132 kts 354°
2026-05-06 13:42 37.81151 -75.97816 1125 ft 133 kts
2026-05-06 13:42 37.82037 -75.97617 960 ft 125 kts
2026-05-06 13:43 37.82855 -75.97483 822 ft 116 kts
2026-05-06 13:43 37.83645 -75.97324 698 ft 113 kts
2026-05-06 13:43 37.84370 -75.97486 622 ft 101 kts 324°
2026-05-06 13:43 37.84666 -75.98156 574 ft 87 kts 262°
2026-05-06 13:44 37.84672 -75.98873 510 ft 77 kts 253°
2026-05-06 13:44 37.84486 -75.99420 410 ft 63 kts 210°
2026-05-06 13:44 37.84083 -75.99556 263 ft 60 kts 181°
2026-05-06 13:44 37.83660 -75.99609 170 ft 60 kts 185°
2026-05-06 13:45 37.83256 -75.99670 82 ft 59 kts 183°
2026-05-06 13:45 37.82559 -75.99762 10 ft 30 kts 186°
2026-05-06 13:45 37.82407 -75.99786 10 ft 8 kts 179°
2026-05-06 13:46 37.82387 -75.99786 10 ft 0 kts 208°
2026-05-06 13:46 37.82383 -75.99793 10 ft 6 kts 259°
2026-05-06 13:46 37.82426 -75.99794 10 ft 6 kts 14°
2026-05-06 13:46 37.82493 -75.99780 10 ft 17 kts
2026-05-06 13:47 37.82627 -75.99758 10 ft 21 kts
2026-05-06 13:47 37.82762 -75.99738 12 ft 19 kts
2026-05-06 13:47 37.82885 -75.99718 11 ft 13 kts
2026-05-06 13:47 37.82910 -75.99662 9 ft 0 kts 94°
2026-05-06 13:48 37.82907 -75.99653 9 ft 5 kts 121°
2026-05-06 13:48 37.82885 -75.99644 10 ft 5 kts 173°
2026-05-06 13:48 37.82868 -75.99623 10 ft 0 kts 94°